Regional Weather Roundup
Issued by NWS

Home | Current Version | Previous Version | Text Only | Print | Product List | Glossary Off
Versions: 1 2 3 4 5 6 7 8 9 10 11 12 13 14 15 16 17 18 19 20 21 22 23 24 25 26 27 28 29 30 31 32 33 34 35 36 37 38 39 40 41 42 43 44 45 46 47 48 49 50

436
ASUS44 KJAN 011703
RWRMS

MISSISSIPPI HOURLY WEATHER ROUNDUP
NATIONAL WEATHER SERVICE JACKSON MS
1200 PM CDT WED OCT 01 2014

NOTE: "FAIR: INDICATES FEW OR NO CLOUDS BELOW 12,000 FEET WITH NO
SIGNIFICANT WEATHER AND/OR OBSTRUCTIONS TO VISIBILITY.

MSZ001>002-007>008-010>013-018>021-025>028-034>036-011800-
NORTHWEST MISSISSIPPI

CITY           SKY/WX    TMP DP  RH WIND       PRES   REMARKS
CLARKSDALE     FAIR      86  66  51 SE13      29.94S
CLEVELAND      PTSUNNY   87  68  54 S14       29.93S HX  90
GREENWOOD      MOSUNNY   84  67  56 S9        29.95S
GREENVILLE     PTSUNNY   84  68  58 S12       29.93S
GRENADA        FAIR      86  64  48 S8        29.96S
OLIVE BRANCH   MOSUNNY   82  66  57 S10       29.95F
OXFORD         FAIR      82  64  54 SW8       29.98S
TUNICA         SUNNY     86  66  51 SW13G18   29.93F
$$

MSZ003>006-009-014>017-022>024-029>033-037>039-011800-
NORTHEAST MISSISSIPPI

CITY           SKY/WX    TMP DP  RH WIND       PRES   REMARKS
COLUMBUS AFB   SUNNY     84  64  49 SW9       29.98S
CORINTH        FAIR      86  59  39 S10       29.96F
GOLDN TRIANGLE MOSUNNY   82  63  51 S8        29.98S
STARKVILLE     FAIR      86  59  39 E7        29.97F
TUPELO         SUNNY     86  60  41 SW9G17    29.96F
$$

MSZ040-058-011800-
CENTRAL MISSISSIPPI

CITY           SKY/WX    TMP DP  RH WIND       PRES   REMARKS
JACKSON INTL   MOSUNNY   85  67  54 S9G17     29.96F
JACKSON HAWKNS SUNNY     84  68  58 S9        29.97S
MERIDIAN KEY   MOSUNNY   83  64  52 S9        29.98S
MERIDIAN NAS   MOSUNNY   86  61  42 SW6       29.98F
RAYMOND        FAIR      82  77  83 S9G18     29.96S HX  91
VICKSBURG      SUNNY     85  68  56 SE10G17   29.94F
$$

MSZ059>079-011800-
SOUTH MISSISSIPPI

CITY           SKY/WX    TMP DP  RH WIND       PRES   REMARKS
BROOKHAVEN     FAIR      82  70  65 S8        29.98F
COLUMBIA       FAIR      82  72  69 S8        29.96S
HATTIESBURG    MOSUNNY   84  67  56 CALM      29.98F
MCCOMB         PTSUNNY   81  70  69 SE10      29.97S
NATCHEZ        CLOUDY    82  72  69 SE12      29.95F
PINE BELT      MOSUNNY   82  64  54 E8        30.00R
$$

MSZ080>082-011800-
COASTAL MISSISSIPPI

CITY           SKY/WX    TMP DP  RH WIND       PRES   REMARKS
BAY ST LOUIS   PTSUNNY   82  70  65 SE9       29.97S
BILOXI         PTSUNNY   84  72  66 S8        29.97S HX  90
PASCAGOULA     PTSUNNY   82  70  66 S5        29.97S
GULFPORT       PTSUNNY   82  72  71 SE8       29.96S
$$



USA.gov is the U.S. government's official web portal to all federal, state and local government web resources and services.